Notices

What's New in latest Release from April 7th, 2021:

- Updated Glossary, including Speed of Maximum Gust, and Total Hourly Precipitation

- Updated national and regional climate services offices contacts and prices information

- Addition of station inventory lists for 1981-2010, 1971-2000, and 1961-1990 Normals.

If you haven't already, please take our survey and provide feedback about our website: https://eccc.sondage-survey.ca/f/LanguageSelection.aspx?s=442ca660-fcf1-47c0-95a9-59707d6fd709

Hourly Data Report for November 29, 2019

EUREKA CLIMATE
NUNAVUT
Current Station Operator: ECCC - MSC

79°59'21.000" N
85°56'02.000" W
10.00 m
2401199
71613
NEK

Download Data

Hourly Data (November 2019)
Hourly Data Report for November 29, 2019
TIME
LST
Temp Definition
°C
Dew Point Definition
°C
Rel Hum Definition
%
Precip. Amount Definition
mm

Wind Dir Definition
10's deg

Wind Spd Definition
km/h
Visibility Definition
km
Stn Press Definition
kPa
Hmdx Definition


Wind Chill Definition


Weather Definition


00:00 -26.1 -28.5 80 0.0 11 10   100.71   -34 LegendNANA
01:00 -27.3 -29.9 79 0.0 10 8   100.67   -35 LegendNANA
02:00 -28.1 -30.7 78 0.0 3 4   100.61   -32 LegendNANA
03:00 -28.8 -31.6 77 0.0 8 8   100.56   -37 LegendNANA
04:00 -28.6 -31.2 78 0.0 11 7   100.51   -36 LegendNANA
05:00 -27.6 -30.2 79 0.0 11 6   100.43   -34 LegendNANA
06:00 -27.8 -30.4 78 0.0 7 4   100.36   -32 LegendNANA
07:00 -28.0 -30.6 78 0.0 7 2   100.32   -30 LegendNANA
08:00 -27.7 -30.3 79 0.0 2 9   100.25   -36 LegendNANA
09:00 -27.3 -29.8 79 0.0 15 1   100.17   -28 LegendNANA
10:00 -27.3 -29.8 79 0.0 9 7   100.11   -34 LegendNANA
11:00 -26.5 -28.9 80 0.0 10 5   100.04   -32 LegendNANA
12:00 -25.5 -27.8 81 0.0 13 9   100.02   -33 LegendNANA
13:00 -25.5 -27.8 81 0.0 10 11   99.98   -34 LegendNANA
14:00 -25.2 -27.6 81 0.2 5 8   99.98   -32 LegendNANA
15:00 -25.0 -27.3 81 0.0 10 5   99.98   -30 LegendNANA
16:00 -24.4 -26.6 82 0.0 11 10   99.98   -32 LegendNANA
17:00 -23.4 -25.5 83 0.2 11 15   99.99   -33 LegendNANA
18:00 -23.1 -25.2 83 0.0 11 12   100.02   -32 LegendNANA
19:00 -23.0 -25.2 82 0.0 12 18   100.07   -34 LegendNANA
20:00 -23.5 -25.6 83 0.0 11 16   100.11   -34 LegendNANA
21:00 -24.4 -26.6 82 0.0 11 21   100.15   -36 LegendNANA
22:00 -24.3 -26.5 81 0.2 12 16   100.19   -35 LegendNANA
23:00 -24.9 -27.1 82 0.0 11 17   100.23   -36 LegendNANA

Notes on Data Quality.

Legend

  • E = Estimated
  • M = Missing
  • NA = Not Available*
  • [empty] = Indicates an unobserved value
Date modified: